Regional Weather Roundup
Issued by NWS Wilmington, NC

Home | Current Version | Previous Version | Text Only | Print | Product List | Glossary On
Versions: 1 2 3 4 5 6 7 8 9 10 11 12 13 14 15 16 17 18 19 20 21 22 23 24 25 26 27 28 29 30 31 32 33 34 35 36 37 38 39 40 41 42 43 44 45 46 47 48 49 50
000
ASUS42 KILM 032310
RWRILM
RWRILM
REGIONAL HOURLY WEATHER ROUNDUP
NATIONAL WEATHER SERVICE WILMINGTON NC
600 PM EST TUE MAR 03 2015

NOTE: "FAIR" INDICATES FEW OR NO CLOUDS BELOW 12,000 FEET WITH NO
SIGNIFICANT WEATHER AND/OR OBSTRUCTIONS TO VISIBILITY.

...............WFO WILMINGTON COUNTY WARNING AREA...............

......COASTAL NC AND SC COUNTIES......

CITY           SKY/WX    TMP DP  RH WIND       PRES   REMARKS
WILMINGTON     LGT RAIN  47  46  97 CALM      30.17S FOG
SOUTHPORT      DRIZZLE   47  46  95 N5        30.16S
N MYRTLE BEACH CLOUDY    49  47  93 N5        30.18R FOG
MYRTLE BEACH   CLOUDY    48  46  93 N7        30.20S FOG

......INLAND NC AND SC COUNTIES.......

CITY           SKY/WX    TMP DP  RH WIND       PRES   REMARKS
LUMBERTON      LGT RAIN  41  39  93 NE5       30.19F FOG
ELIZABETHTOWN  RAIN      40  40  97 CALM      30.19F
WHITEVILLE     DRIZZLE   44  42  93 CALM      30.19R
FLORENCE       CLOUDY    41  39  93 NE5       30.19F FOG
DARLINGTON     CLOUDY    41  37  87 E5        30.19F

....................REST OF NORTH CAROLINA......................

.........EASTERN NC.........

CITY           SKY/WX    TMP DP  RH WIND       PRES   REMARKS
CAPE HATTERAS  CLOUDY    52  47  83 S15       30.19F
JACKSONVILLE   CLOUDY    45  41  87 CALM      30.19S
MOREHEAD CITY  CLOUDY    56  52  86 SE9       30.17F
KENANSVILLE    CLOUDY    40  40  99 NW3       30.21R FOG
NEW BERN       LGT RAIN  46  40  79 CALM      30.19F
ELIZABETH CITY CLOUDY    43  35  73 S3        30.17F

.........CENTRAL NC.........

CITY           SKY/WX    TMP DP  RH WIND       PRES   REMARKS
RALEIGH DURHAM DRIZZLE   36  33  89 CALM      30.18F FOG
ROCKY MOUNT    LGT RAIN  38  36  92 W3        30.20F FOG
ROANOKE RAPIDS NOT AVBL
FAYETTEVILLE   CLOUDY    38  37  97 E3        30.19F FOG
HOFFMAN        CLOUDY    38  38  97 NE3       30.21F

.........WESTERN NC.........

CITY           SKY/WX    TMP DP  RH WIND       PRES   REMARKS
CHARLOTTE      CLOUDY    42  37  82 S5        30.16F
GREENSBORO     DRIZZLE   37  36  96 S5        30.14S FOG     WCI  33
HICKORY        NOT AVBL
BOONE          NOT AVBL
ASHEVILLE      NOT AVBL

.....................REST OF SOUTH CAROLINA.....................

.........EASTERN SC.........

CITY           SKY/WX    TMP DP  RH WIND       PRES   REMARKS
CHARLESTON     MOCLDY    62  53  72 NE5       30.16F
BEAUFORT MCAS  PTCLDY    62  57  83 E5        30.15S
HILTON HEAD    CLOUDY    55  52  88 CALM      30.16F

.........CENTRAL SC.........

CITY           SKY/WX    TMP DP  RH WIND       PRES   REMARKS
COLUMBIA       CLOUDY    45  45 100 E5        30.17F FOG
ORANGEBURG     CLOUDY    47  44  90 E7        30.16F FOG
SUMTER SHAW    CLOUDY    41  40  97 NE6       30.16F FOG

.........WESTERN SC.........

CITY           SKY/WX    TMP DP  RH WIND       PRES   REMARKS
GREENVILLE     NOT AVBL
ROCK HILL      CLOUDY    41  40  96 SE3       30.17F FOG
ANDERSON       CLOUDY    45  44  97 CALM      30.15F
CLEMSON        NOT AVBL
GREENWOOD      CLOUDY    46  44  93 E5        30.16F


...................COASTAL AND OFFSHORE REPORTS..................

................LOCAL PIERS AND NC RESERVE................


STATION/POSITION TIME  SKY/WX   TEMP    WIND        PRES    VSBY
                                AIR SEA DIR/SP/G
                 (UTC)          (F)     (DEG/KT/KT) (MB)    (MI)
JOHNY MRCER PIER 2300            46 48   10/  8/ 10 1020.8S
NC RESRV MASNBRO 2200            45      20/  5     1021.0S
OCEAN CREST PIER 2300            47 47  340/  9/ 13 1020.3F
SPRINGMAID  PIER 2300            48 45  310/  7/  9 1021.6S


................COASTAL AND OFFSHORE BUOYS................


STATION/POSITION TIME  SKY/WX   TEMP    WIND        PRES    VSBY
                                AIR SEA DIR/SP/G
                 (UTC)          (F)     (DEG/KT/KT) (MB)    (MI)
DIMNDSHOAL 41025 NOT AVBL
CAPE LOOKOUT     2200            56     140/ 11/ 11 1021.9F
ONSLOW BAY 41036 NOT AVBL
5 WRITEBCH 41038 NOT AVBL
MASONBORO  41110 2300               46                N/A
WVE H/P(F/S)=  4/ 5 WND WVE H/P(F/S)=  3/ 5

WILM HARBR 41108 2300               48                N/A
WVE H/P(F/S)=  3/ 8 WND WVE H/P(F/S)=  3/ 8

27WRITEBCH 41037 NOT AVBL
FRYING PAN 41013 2300            66 61  160/ 16/ 17 1020.8F
WVE H/P(F/S)=  6/ 6 WND WVE H/P(F/S)=  5/ 6 SWL H/P/D(F/S/D)=  3/130/ 9

SUNST NRSH 41024 2200            48     360/  8/  8   N/A
CAPRS NRSH 41029 NOT AVBL
EDISTO     41004 2300            63 68  330/  8/ 10 1020.9R
WVE H/P(F/S)=  5/ 7 WND WVE H/P(F/S)=  2/ 4 SWL H/P/D(F/S/D)=  5/ 7



..........OFFSHORE BUOYS BEYOND 100 NM OFFSHORE...........
.....IN A TRIANGLE---HAT TO BERMUDA TO BAHAMAS TO HAT.....


STATION/POSITION TIME  SKY/WX   TEMP    WIND        PRES    VSBY
                                AIR SEA DIR/SP/G
                 (UTC)          (F)     (DEG/KT/KT) (MB)    (MI)
150E HAT   41001 NOT AVBL
W BERMUDA  41048 2203            63 69   80/ 12/ 14 1025.7R
WVE H/P(F/S)=  9/10 WND WVE H/P(F/S)=  2/ 5 SWL H/P/D(F/S/D)=  8/350/10

ATLANTIC S 41049 2224            70 75  340/  6/ 16 1021.7R
WVE H/P(F/S)=  5/11 WND WVE H/P(F/S)=  2/ 4 SWL H/P/D(F/S/D)=  5/ 80/11

E BAHAMAS  41046 2221            76 78   60/ 16/ 19 1020.7R
WVE H/P(F/S)=  7/10 WND WVE H/P(F/S)=  3/ 6 SWL H/P/D(F/S/D)=  5/100/10

NE BAHAMAS 41047 2214            71 74   90/ 14/ 16 1022.8S
WVE H/P(F/S)=  5/ 9 WND WVE H/P(F/S)=  3/ 6 SWL H/P/D(F/S/D)=  5/110/ 9

120E CANVRL41010 2300            73 75  140/ 10/ 12 1021.9R
WVE H/P(F/S)=  3/ 9 WND WVE H/P(F/S)=  2/ 3 SWL H/P/D(F/S/D)=  3/100/ 9


END



USA.gov is the U.S. government's official web portal to all federal, state and local government web resources and services.